Wind_Speed
12 14 15 17 18 19 19 19 19 21 17 12 1 1 3 6 5 2 3 3 4 8 6 3 3 5 3 4 3 3 4 2 6 7 5 6 4 1 1 5 1 2 4 5 29
13 15 16 17 19 20 21 20 19 19 18 13 7 6 4 6 3 6 3 5 6 8 5 9 4 5 3 3 3 4 3 6 4 4 3 4 4 8 5 3 4 1 1 17 24
13 14 16 18 19 20 22 23 21 21 20 12 10 5 6 7 3 2 2 4 5 6 6 6 4 3 4 2 3 1 3 2 3 4 3 2 3 6 7 5 9 11 13 11 12
13 15 17 18 19 20 21 23 24 23 22 14 9 4 2 1 3 3 1 3 6 5 6 6 6 4 3 2 3 2 1 2 3 3 2 3 7 5 9 5 1 8 14 11 9
14 15 17 18 19 20 21 22 24 24 23 16 8 2 1 2 6 4 1 1 3 2 8 3 5 1 1 1 3 2 1 3 3 5 5 4 5 8 9 3 3 12 12 10 11
13 15 16 18 19 20 20 21 23 25 25 17 7 3 2 3 3 2 1 2 4 4 5 6 4 2 3 0 1 0 3 5 6 5 4 4 2 3 2 5 7 12 11 9 9
14 15 17 18 20 21 22 22 23 24 25 14 6 3 2 9 3 2 2 3 5 4 4 3 4 4 2 1 2 1 5 6 3 3 4 4 6 10 3 7 9 9 7 8 12
15 16 17 18 20 22 23 23 24 26 19 7 2 2 6 3 5 3 2 5 5 5 7 6 4 5 3 0 6 4 4 5 1 3 2 3 10 7 7 11 11 10 9 9 10
16 16 17 19 20 23 24 25 25 23 9 1 2 3 8 2 2 6 3 3 4 6 6 6 4 3 4 3 4 6 4 3 8 6 3 5 11 6 7 9 10 13 13 13 10
18 17 17 19 20 22 24 24 18 6 1 2 2 3 2 3 2 3 4 4 3 4 3 5 5 3 3 3 4 5 4 5 7 2 4 5 17 14 7 12 18 16 14 14 14
17 18 18 18 17 18 23 9 7 4 2 6 3 3 0 1 3 2 3 5 3 2 5 2 2 6 8 7 4 4 4 8 6 5 4 10 14 21 9 11 15 12 13 17 18
16 17 18 18 15 15 9 3 3 2 8 4 4 5 4 3 2 4 7 5 4 7 4 3 8 6 4 4 5 4 3 8 8 1 6 11 17 16 17 11 13 16 17 20 16
16 16 16 13 12 4 5 2 1 1 1 8 4 4 3 7 5 4 9 5 5 6 7 7 3 6 6 5 5 4 5 5 8 6 5 8 9 6 6 7 7 10 12 16 20
15 15 14 12 3 6 1 2 1 2 3 7 4 3 2 3 4 1 6 3 2 10 8 7 2 7 4 6 8 4 5 3 4 5 4 5 10 4 7 11 6 9 11 14 17
15 13 11 7 7 1 1 1 1 2 4 5 4 2 2 4 3 1 0 2 5 6 6 8 8 6 6 7 8 7 3 3 1 3 3 4 5 7 3 8 18 9 13 14 16
15 11 10 9 6 5 2 3 1 4 7 5 4 5 4 3 2 2 2 3 1 4 3 6 1 6 6 2 3 4 2 4 4 1 2 6 7 4 6 8 7 5 6 10 12
15 12 11 9 3 2 6 4 2 5 3 5 6 4 3 6 5 7 7 7 8 4 7 1 5 2 3 4 2 3 5 3 5 2 8 4 3 12 9 11 10 10 5 8 11
15 11 12 13 6 6 6 4 9 8 8 3 2 2 6 7 4 5 5 5 7 2 3 5 9 9 6 7 7 6 8 6 8 4 9 2 9 7 11 9 6 5 8 8 10
15 12 13 16 13 7 2 6 9 9 8 9 3 3 4 4 4 5 8 6 8 13 11 7 8 2 1 2 4 5 6 3 5 2 3 5 8 7 10 9 8 8 7 9 10
17 8 12 16 18 9 2 21 8 9 8 5 14 11 10 8 8 8 9 5 6 15 1 4 5 2 3 3 2 4 3 4 2 3 6 10 14 13 13 9 10 8 10 9 9
15 3 8 27 23 3 9 10 7 8 7 9 10 8 9 9 9 7 8 4 7 5 5 5 5 3 3 9 11 3 3 1 2 5 6 4 13 5 8 10 10 11 11 10 12
10 5 16 36 6 5 15 7 7 7 6 9 7 12 12 11 10 9 12 13 11 10 11 8 5 9 15 1 2 2 8 12 7 7 3 3 22 1 6 9 8 9 11 8 10
4 5 15 21 10 15 4 5 7 5 9 16 12 8 7 10 5 10 11 5 11 12 12 10 4 8 7 2 2 7 8 7 1 2 12 6 20 5 6 9 8 10 9 8 9
4 5 4 5 6 13 15 10 8 3 17 6 4 7 3 7 10 9 5 7 9 11 6 17 8 11 19 12 6 6 11 15 22 12 17 30 29 42 21 25 28 16 10 10 13
5 4 5 7 17 18 9 6 18 10 7 8 11 19 9 12 17 19 8 2 1 3 1 10 15 18 22 28 6 8 13 16 20 29 18 34 27 39 27 30 29 18 9 9 11
7 5 4 3 11 23 23 22 29 17 7 9 20 10 21 22 29 26 21 5 10 6 6 2 13 12 24 20 8 9 31 18 24 26 24 29 37 31 31 28 27 27 11 10 13
19 9 8 11 13 12 22 33 34 26 20 24 19 17 19 27 25 24 6 4 11 15 11 8 5 3 25 4 7 8 30 30 34 26 26 26 41 32 30 26 25 19 10 12 15
Wind_Direction
19 18 16 13 11 12 13 12 13 14 9 14 313 189 20 29 53 98 50 8 3 5 10 10 21 54 87 80 71 133 60 177 197 159 237 167 143 47 39 125 186 247 175 221 163
5 6 7 6 4 2 3 6 7 8 6 358 351 249 281 353 351 59 47 14 10 7 7 35 11 7 56 49 32 77 103 219 190 199 230 175 165 167 155 163 230 272 131 149 158
353 356 357 357 356 356 355 356 358 1 3 354 345 289 264 314 324 181 64 20 4 16 21 31 28 38 67 33 11 134 171 219 251 222 208 192 148 168 147 219 205 199 180 168 162
340 345 348 348 349 348 349 349 349 352 355 347 336 316 283 313 254 163 92 17 13 27 39 47 22 42 60 42 352 31 39 241 294 234 149 251 124 228 199 217 336 199 164 160 166
335 337 339 340 341 341 341 343 341 344 346 343 329 276 264 359 249 190 249 343 16 2 48 70 60 74 36 331 6 96 303 309 288 288 247 119 227 239 241 262 106 137 152 169 175
324 329 332 333 332 332 331 334 335 336 339 336 319 222 200 242 196 195 261 181 44 50 46 40 111 137 101 82 124 264 267 257 260 248 248 208 243 354 269 118 133 156 177 176 178
317 320 325 324 325 326 325 326 328 329 331 328 305 209 124 238 209 219 169 139 71 85 108 70 105 91 116 21 323 291 324 317 210 206 245 161 280 239 143 143 163 183 190 183 197
305 312 317 319 320 321 321 320 321 320 323 319 268 194 245 256 222 222 142 117 84 80 103 108 99 107 65 249 15 24 49 3 218 156 4 128 271 264 171 161 198 201 200 198 208
305 307 315 316 317 320 319 320 316 313 311 247 179 142 272 289 230 219 195 142 103 86 80 100 78 95 43 74 10 8 283 294 313 201 131 171 271 251 170 193 212 210 207 206 208
318 313 313 316 317 320 321 322 312 304 183 119 70 47 262 224 185 193 174 152 113 103 52 46 53 68 49 84 242 243 284 263 248 230 195 224 263 268 208 201 220 216 208 208 207
318 322 322 314 319 326 334 342 7 346 3 200 201 240 359 179 192 170 155 124 86 97 189 8 91 214 226 202 177 165 199 242 252 242 246 250 251 273 255 218 234 220 207 211 212
313 319 322 321 328 325 332 64 105 156 308 282 242 274 235 162 282 213 164 161 153 204 117 41 236 202 126 145 170 165 225 263 279 300 192 267 259 263 257 244 223 220 215 215 202
307 313 317 328 328 335 6 57 32 27 219 294 234 215 198 161 218 242 152 149 169 180 189 177 205 116 151 171 173 212 196 236 240 326 255 298 267 242 277 266 241 221 221 214 206
304 309 313 330 295 345 10 345 121 23 43 270 253 271 92 130 258 126 193 141 193 209 164 231 198 173 171 214 155 244 211 234 286 3 258 25 291 251 247 276 246 235 212 212 203
294 301 302 321 302 181 218 1 114 101 303 268 202 146 123 173 115 282 40 93 193 183 134 240 171 177 191 215 166 225 140 168 146 221 346 236 275 262 18 262 266 253 226 216 203
286 290 284 287 260 236 196 146 84 50 247 289 168 184 147 181 188 118 133 55 108 137 254 248 313 173 206 89 159 126 97 61 59 71 289 222 192 216 185 209 253 247 231 207 198
272 279 256 259 279 272 182 120 46 192 295 233 216 188 194 188 213 179 168 176 176 152 222 274 211 178 156 116 62 106 76 316 324 348 239 165 217 254 229 221 221 251 283 222 192
254 249 248 235 274 236 166 59 215 202 207 41 95 81 196 158 242 181 158 216 239 96 112 185 273 178 177 195 181 176 170 169 233 233 280 344 246 264 226 253 253 241 255 236 189
230 231 229 236 225 209 89 214 211 180 194 167 109 178 238 227 206 156 211 216 209 173 190 176 262 107 167 141 142 183 189 168 100 113 339 240 273 280 261 275 262 258 251 235 198
203 215 210 218 208 166 107 236 212 196 146 153 198 183 207 201 175 186 179 198 222 196 100 221 303 171 158 136 44 177 170 78 11 257 264 267 276 253 242 237 241 238 235 233 201
190 218 201 188 174 189 220 227 213 209 165 174 206 222 209 189 196 206 220 228 207 166 159 145 156 224 124 212 168 132 213 129 163 163 204 275 268 203 221 189 221 224 226 215 200
173 207 178 166 180 207 233 197 208 219 188 241 198 212 197 185 202 219 212 215 157 151 163 202 159 233 233 211 333 221 199 176 202 228 252 141 271 188 201 207 220 227 233 218 202
204 188 184 181 203 216 238 270 239 204 194 224 229 202 194 196 229 192 220 204 158 157 167 177 218 248 260 90 12 221 199 222 237 143 207 180 253 108 204 242 223 234 227 218 198
159 175 167 229 223 209 221 248 243 250 244 259 258 186 127 237 234 256 227 206 197 195 201 162 179 198 233 231 133 185 217 218 220 227 233 232 256 268 265 277 273 264 228 217 203
176 193 194 195 218 221 193 202 231 231 214 203 249 230 205 237 247 242 241 236 213 228 210 174 229 227 245 255 181 211 236 217 216 228 219 250 244 254 264 265 274 279 248 207 193
208 172 180 225 213 211 214 229 243 238 184 221 228 231 229 237 234 247 234 176 217 6 189 218 247 246 254 255 197 249 255 240 231 237 243 252 259 260 268 278 282 278 259 213 203
230 202 192 195 209 209 213 222 229 232 245 245 237 239 243 239 246 260 272 218 240 227 195 175 195 205 251 196 118 270 247 240 255 240 232 244 252 273 271 267 264 268 210 217 210
Height
828 826 824 822 820 817 815 812 810 807 803 801 800 799 798 797 795 795 796 797 795 793 791 789 790 788 790 794 797 802 823 830 824 828 811 808 812 819 820 823 824 823 823 820 824
829 828 825 823 821 818 815 812 810 807 804 801 799 799 798 797 796 795 797 795 794 792 790 789 790 789 796 797 802 811 826 817 810 810 806 806 808 817 820 823 824 824 822 822 824
830 828 826 823 820 818 815 812 810 807 804 801 799 798 798 798 798 795 795 795 794 792 790 789 790 791 796 798 805 810 817 807 805 805 804 804 810 814 818 823 814 814 818 821 823
830 828 826 823 820 817 814 812 809 807 804 801 799 797 797 798 811 794 794 794 794 792 791 791 792 797 805 805 806 810 807 806 804 803 805 806 813 811 813 798 803 805 810 816 821
829 827 825 822 820 817 814 811 808 805 803 800 798 797 797 799 796 793 793 793 794 792 792 792 798 803 806 807 805 807 809 807 804 806 806 807 807 810 803 799 802 805 811 815 817
828 826 823 821 818 815 812 809 807 804 801 799 797 796 798 805 791 791 792 792 792 793 794 794 797 800 806 808 809 809 809 809 806 806 806 807 808 809 796 803 806 807 810 814 817
826 824 822 819 817 814 811 807 804 801 799 798 797 796 796 796 791 791 790 791 791 792 794 796 797 799 805 807 809 809 812 809 806 804 804 805 810 808 798 804 808 810 812 815 814
824 822 820 818 815 812 809 805 802 799 796 795 795 796 797 790 789 791 791 791 792 792 793 796 797 800 804 807 812 814 817 819 804 804 804 803 810 792 799 804 806 809 811 811 811
822 820 817 815 813 810 807 803 799 795 794 794 794 795 798 790 790 790 791 792 792 794 794 795 797 807 809 817 824 828 825 822 815 806 805 807 803 789 801 803 803 804 804 805 806
820 818 816 814 812 810 805 800 795 793 793 793 795 799 791 789 788 789 790 791 793 795 797 799 808 814 822 823 832 824 826 826 825 806 809 809 801 784 796 800 792 792 797 800 800
820 816 815 812 811 809 805 799 798 797 793 791 790 791 787 788 788 788 790 792 794 796 804 806 812 815 806 813 810 813 821 827 817 807 806 804 797 778 779 792 789 789 792 792 791
819 816 813 811 810 810 808 807 810 813 809 789 787 788 785 785 789 788 790 795 799 806 806 812 814 800 801 810 812 815 820 824 815 807 812 804 794 782 768 770 771 774 780 779 785
817 815 813 811 810 810 809 810 809 809 813 794 787 784 783 785 787 786 788 792 797 807 809 811 795 799 801 809 812 816 822 817 814 814 811 811 786 782 762 761 760 764 763 771 775
816 815 813 810 811 809 809 809 809 810 824 799 787 783 784 784 786 784 786 789 796 801 808 804 795 798 803 806 810 814 807 809 812 818 820 805 781 773 760 757 757 756 762 761 767
815 814 813 811 809 807 809 809 809 810 848 787 784 782 783 788 788 787 787 787 794 797 801 790 799 801 803 800 802 803 803 806 811 818 826 816 827 784 772 762 743 740 750 753 757
811 812 812 811 808 807 806 808 811 831 836 789 783 785 785 785 785 788 788 788 791 794 796 796 793 794 792 798 799 804 804 819 835 834 840 794 802 778 770 754 744 737 744 750 755
806 808 809 811 808 806 807 808 829 835 793 781 778 786 782 786 785 786 789 793 794 800 802 790 792 790 791 795 803 804 811 827 830 845 799 803 814 739 742 738 732 731 739 745 748
802 803 805 806 807 807 808 817 826 798 789 775 779 784 784 782 782 786 789 790 787 785 803 795 786 790 789 785 792 809 806 819 833 836 784 829 780 730 731 731 738 741 741 740 745
798 798 800 803 805 808 812 819 780 784 776 776 778 782 782 777 775 786 790 783 771 774 774 795 789 786 786 785 787 802 804 797 823 894 855 769 750 736 728 730 734 737 737 737 739
792 794 790 795 802 804 816 773 771 763 763 766 770 769 777 775 782 784 780 765 761 761 751 760 777 784 790 788 795 794 796 809 820 816 850 762 740 718 707 717 716 729 731 730 735
786 787 780 784 796 801 785 773 758 752 751 761 760 757 760 765 769 778 757 751 753 758 757 763 767 779 790 790 785 800 797 797 799 813 805 814 699 701 699 703 705 714 716 719 724
772 773 770 779 787 778 762 762 749 745 747 747 748 747 749 755 759 764 754 735 738 749 760 761 767 769 760 775 780 773 775 771 778 783 813 805 707 689 694 697 703 709 710 712 714
758 762 769 767 762 757 759 757 748 745 742 738 741 741 740 742 749 746 738 729 734 737 746 754 765 763 754 773 778 777 771 766 763 779 767 781 691 695 700 702 705 705 706 709 711
745 751 762 760 742 742 747 747 749 739 737 736 736 740 741 744 733 722 732 731 731 726 726 726 745 741 728 724 744 766 758 753 742 741 729 712 693 648 681 678 668 687 699 699 701
727 731 735 741 735 739 742 732 729 738 737 733 734 730 732 733 731 724 727 730 735 729 732 730 726 719 713 702 738 732 729 731 742 718 722 679 698 651 673 666 660 666 675 690 696
711 719 729 726 728 731 729 726 728 725 730 730 721 721 720 721 708 704 713 724 722 749 744 744 721 722 716 709 732 733 700 712 718 704 709 693 670 648 653 655 657 656 668 680 685
704 701 703 708 714 718 707 703 699 710 713 713 715 719 717 704 702 699 709 717 717 718 741 746 738 754 710 729 742 740 673 685 674 677 685 690 640 647 652 653 647 653 665 667 670